STARLINK-11262, 62009

Orbit data source: Space-Track

STARLINK-11262, 62009 is a payload satellite owned by SpaceX/Seattle (US) in LEO that was launched on Mon, 18 Nov 2024 UTC via an FALCON 9 launch vehicle from the Air Force Western Test Range (AFWTR). Payload-class satellites include a variety of spacecraft equipped with specific instruments for various scientific and technological missions. These include communications satellites like Starlink; space stations such as the ISS; scientific satellites like the Hubble; Earth observation satellites from companies like Planet Labs, Umbra, and HawkEye 360; GPS; miniature CubeSats for education and research; and military/defense satellites.

Loading next visibility...
Identifier
62009, 2024-213B
Orbit
LEO
Last TLE update
10 hours ago
Origin
Manufacturer
SpaceX/Seattle
Mission
Operational Commercial Communications
Bus & Motor
STARLINK V2M, Unknown motor
Mass
730 kg wet, ~700 kg dry
Launch date (UTC)
2024-11-18 (7 months ago)
Launch vehicle
FALCON 9
Launch site
Air Force Western Test Range (AFWTR)
Object type
Payload
Rocket body
Debris
Shape & HBR
Box + 2 Pan, 29 m
Radar Cross Section
36.964 m², Large (>1 m²)

Expand to show TLE details & history

TLE from 10 hours ago
0 STARLINK-11262
1 62009U 24213B   25181.76480900  .00145890  00000-0  11853-2 0  9997
2 62009  53.1570 203.4477 0000464  82.1670 277.9400 15.69764331 35344
Epoch: 2025-06-30T18:21Z
TLE epoch observation values (Epoch: 2025-06-30T18:21:19.497Z)
Latitude
-0.00007°
Longitude
9.04648°
Altitude
360.443 km
Speed
7.694 km/s
True Right ascension
13h 33m 47s
True Declination
0° 00' 00"
Sunlit
Object was in daylight at epoch
Visualization orbit readout
Latitude
53.3089°
Longitude
96.29072°
Altitude
365.496 km
Speed
7.697 km/s
Apparent Right ascension
00h 06m 45s
Apparent Declination
16° 40' 32"
Sunlit
Object is in daylight
Visualization observer readout
Local Sidereal Time
15:31:32
Azimuth
50.964° ENE
Elevation
-16.04°
Doppler factor
1
Orbital elements
Apogee altitude
360.145 km
Perigee altitude
359.52 km
Semi-major axis
6,737.969 km
Eccentricity
0.00005
Inclination
53.157°
RAAN
203.4477°
Arg. of periapsis
82.167°
True anomaly
Unknown
Mean anomaly
277.94°
Eccentric anomaly
Unknown
Mean motion
3.92419 °/min
Orbital period
91.74 mins
BSTAR
0.0011853
Loading maneuver chart data...
Loading SW <> Apogee altitude chart data...
Loading historical data...
Loading historical data...
Loading historical data...
Loading historical data...
Loading historical data...
Loading historical data...
Loading historical data...

STARLINK-11262 Visibility forecast

Observer location: undefined°, undefined°

Span
Click to sort rows by Start time (UTC) header in descending order
Start Az.
Max El. time (UTC)
Max El. Az.
Max El.
End time (UTC)
End Az.
4 mins2025-07-01 05:17:09.495Z282.634° WNW2025-07-01 05:19:09.495Z340.122° N21.92°2025-07-01 05:21:09.495Z25.098° NE
|